Terminal Aerodrome Forecast
Issued by NWS Nashville, TN

Home | Current Version | Previous Version | Text Only | Print | Product List | Glossary On
Versions: 1 2 3 4 5 6 7 8 9 10 11 12 13 14 15 16 17 18 19 20 21 22 23 24 25 26 27 28
000
FTUS44 KOHX 290700 AAA
TAFCSV
TAF AMD
KCSV 290757Z 2908/3006 33004KT P6SM SCT030
      TEMPO 2909/2912 4SM BR
     FM291500 34010KT P6SM SCT040=

USA.gov is the U.S. government's official web portal to all federal, state and local government web resources and services.